Location: San Gennaro Vesuviano
(40.8833°N, 14.5333°E)
Time: 11:28:26
(UTC+00:00)

Cosmos 1763 Rocket - Pass Details

Date: 22 April 2021
Orbit: 733 x 779 km, 74.0° (Epoch: 10 May)

Event Time Altitude Azimuth Distance (km) Brightness Sun altitude
Rises 20:57:55 0° 338° (NNW) 3,170 7.8 -29.6°
Reaches altitude 10° 21:00:17 10° 336° (NNW) 2,243 6.8 -29.8°
Enters shadow 21:04:17 53° 311° (NW) 900 4.0 -30.3°
